Other Public Products
Issued by NWS Charleston, SC

Current Version | Previous Version | Graphics & Text | Print | Product List | Glossary On
Versions: 1 2 3 4 5 6 7 8 9 10 11 12 13 14 15 16 17 18 19 20 21 22 23 24 25 26 27 28 29 30 31 32 33 34 35 36 37 38 39 40 41 42 43 44 45 46 47 48 49 50
952
FPUS82 KCHS 262127
OPUCHS

TEST...KCHS/KSAV Gateway Observations...TEST
National Weather Service Charleston SC
500 PM EDT WED JUL 26 2017

NOTE: "fair" indicates few or no clouds below 12,000 feet with no
significant weather and/or obstructions to visibility.

SCZ050-WAZ558-NCZ071-TXZ119-213-PAZ071-DCZ001-FLZ074-172-MI076-
NYZ176-178-MAZ016-IL014-TNZ027-NJZ106-GAZ044-MD014-262200-

...Gateway Observations for Charleston International...

CITY           SKY/WX    TMP DP  RH WIND       PRES   REMARKS
Chas Airport   CLOUDY    84  74  71 NE7       30.06F HX  91
Seattle        MOSUNNY   76  55  48 W9        30.08F
Charlotte      PTSUNNY   87  69  54 S12       30.11F HX  91
Dallas DFW     MOSUNNY   97  69  40 S14       29.99F HX 103
Dallas Love    MOSUNNY   97  68  38 S9        29.99F HX 102
Philladelphia  PTSUNNY   81  62  52 E8        30.15S
Wash National  PTSUNNY   84  61  45 CALM      30.11F
Baltimore      PTSUNNY   80  66  62 E7        30.12F
Miami          MOSUNNY   91  74  57 SE5       30.04F HX 100
Detroit        CLOUDY    81  62  52 W10       30.06F
Newark         PTSUNNY   75  54  47 SE8       30.17S
Laguardia      PTSUNNY   76  57  51 S9        30.17S
J F K          MOSUNNY   74  57  55 S12       30.19F
Boston Logan   MOSUNNY   72  59  63 SE15      30.14F
Ft. Lauderdale MOSUNNY   89  75  63 SE9G17    30.03F HX  99
Chicago O`Hare CLOUDY    84  68  58 SW10      30.00F
Chicago Midway CLOUDY    84  69  60 SW8       30.01S
Houston Bush   PTSUNNY   87  72  60 SE15      30.04F HX  93
Houston Hobby  PTSUNNY   85  73  67 S9        30.04F HX  91
Nashville      CLOUDY    94  71  47 S9        30.04F HX 101
Atlanta        MOSUNNY   94  67  41 NW10      30.06F HX  97

$$

GAZ044-118-TXZ119-213-NCZ071-DCZ001-MDZ014-506-PAZ021-071-NJZ106-
NYZ176-178-MAZ106-OHZ011-021-055-MIZ076-KYZ091-ILZ014-INZ047-
MNZ060-ONZ431-262200-

...Gateway Observations for Savannah International...

CITY           SKY/WX    TMP DP  RH WIND       PRES   REMARKS
Savannah Arpt  CLOUDY    83  73  72 E5        30.07S
Atlanta        MOSUNNY   94  67  41 NW10      30.06F HX  97
Charlotte      PTSUNNY   87  69  54 S12       30.11F HX  91
Dallas DFW     MOSUNNY   97  69  40 S14       29.99F HX 103
Houston Bush   PTSUNNY   87  72  60 SE15      30.04F HX  93
Wash National  PTSUNNY   84  61  45 CALM      30.11F
Wash Dulles    PTSUNNY   82  61  48 E5        30.12F
Baltimore      PTSUNNY   80  66  62 E7        30.12F
Philadelphia   PTSUNNY   81  62  52 E8        30.15S
Newark         PTSUNNY   75  54  47 SE8       30.17S
Laguardia      PTSUNNY   76  57  51 S9        30.17S
J F K          MOSUNNY   74  57  55 S12       30.19F
Boston         MOSUNNY   72  59  63 SE15      30.14F
Pittsburg      PTSUNNY   79  61  53 SW6       30.10S
Akron          CLOUDY    81  60  48 SW7       30.09F
Cleveland      CLOUDY    83  62  49 SW8       30.08F
Cincinnati     CLOUDY    85  68  56 SW6       30.06F
Columbus       SUNNY     80  63  57 SW7       30.07F
Detroit        CLOUDY    81  62  52 W10       30.06F
Chicago O`Hare CLOUDY    84  68  58 SW10      30.00F
Minneapolis    MOSUNNY   84  61  45 NW8       29.99S
Indianapolis   CLOUDY    84  70  62 VRB7      30.03F
Toronto Canada CLOUDY    72  59  64 SE6       30.06F

$$




USA.gov is the U.S. government's official web portal to all federal, state and local government web resources and services.